Date,TemperatureHighF,TemperatureAvgF,TemperatureLowF,DewpointHighF,DewpointAvgF,DewpointLowF,HumidityHigh,HumidityAvg,HumidityLow,PressureMaxIn,PressureMinIn,WindSpeedMaxMPH,WindSpeedAvgMPH,GustSpeedMaxMPH,PrecipitationSumIn
2013-4-1,33.7,25.0,16.9,16.7,12.7,9.4,73,60,38,30.24,30.08,17,6,22,0.00
2013-4-2,36.5,26.7,18.3,16.1,13.3,6.7,79,59,30,30.33,30.22,16,2,19,0.00
2013-4-3,46.4,33.9,16.7,30.4,19.8,11.6,85,59,29,30.36,29.97,20,3,28,0.00
2013-4-4,49.9,41.9,28.4,32.9,26.5,19.3,77,56,35,30.14,29.92,21,3,23,0.00
2013-4-5,44.1,33.4,21.9,31.5,22.9,14.5,89,68,31,30.21,29.82,15,2,15,0.06
2013-4-6,51.4,40.7,36.5,41.9,32.7,26.5,90,74,51,29.80,29.45,16,4,23,0.30
2013-4-7,49.9,40.3,33.7,37.8,32.5,29.0,89,74,52,29.89,29.71,9,1,13,0.16
2013-4-8,44.2,40.9,39.2,40.1,37.9,34.9,95,89,83,30.01,29.62,9,2,13,0.70
2013-4-9,43.9,38.1,33.5,34.9,29.0,22.4,83,71,53,30.13,29.93,16,6,23,0.06
2013-4-10,39.9,35.0,30.3,29.4,24.3,20.7,89,66,46,30.16,29.88,15,4,21,0.06
2013-4-11,36.0,32.9,29.5,31.2,27.8,19.6,92,83,51,29.88,29.65,15,5,24,0.30
2013-4-12,36.3,30.8,27.3,28.8,26.5,24.5,92,84,67,29.80,29.64,10,1,12,0.27
2013-4-13,36.2,31.7,26.0,26.8,24.4,20.8,89,75,62,29.92,29.78,11,1,14,0.17
2013-4-14,36.3,31.5,25.4,34.5,26.8,20.6,93,83,68,29.91,29.45,16,2,24,0.36
2013-4-15,39.9,35.8,32.2,34.1,28.1,24.7,92,74,63,29.92,29.46,23,5,26,0.13
2013-4-16,43.8,37.3,33.1,28.5,26.5,25.0,77,65,50,30.28,29.91,22,2,24,0.00
2013-4-17,40.9,36.3,32.2,33.2,28.4,25.0,92,73,63,30.28,29.89,15,3,22,0.09
2013-4-18,34.3,32.1,31.0,32.0,30.0,28.9,94,92,88,29.90,29.47,15,5,21,0.13
2013-4-19,36.8,31.8,26.9,29.5,24.7,14.5,94,77,51,29.95,29.43,21,6,29,0.40
2013-4-20,42.5,31.0,15.2,20.1,13.1,6.7,82,50,23,30.26,29.96,5,0,7,0.13
2013-4-21,48.3,39.7,32.4,44.6,33.5,16.9,91,79,50,30.26,29.95,18,4,24,0.14
2013-4-22,43.9,37.1,31.9,36.0,30.5,26.7,94,78,55,30.17,30.07,14,3,22,0.02
2013-4-23,41.8,34.1,26.6,30.3,24.8,17.5,94,71,41,30.13,30.02,14,2,20,0.32
2013-4-24,52.9,37.4,25.7,33.6,26.4,20.1,85,68,30,30.03,29.85,22,4,30,0.00
2013-4-25,51.0,41.3,30.6,31.8,27.1,20.5,87,61,30,30.15,29.91,15,3,23,0.00
2013-4-26,72.1,58.5,45.7,43.1,36.6,27.4,67,46,27,30.05,29.88,23,4,23,0.00
2013-4-27,76.5,59.1,35.8,45.5,34.9,29.6,83,46,18,30.06,29.78,15,1,17,0.00
2013-4-28,80.5,65.0,52.6,52.2,45.7,42.3,86,53,27,29.78,29.53,21,5,25,0.07
2013-4-29,76.3,62.1,47.4,55.9,42.8,33.4,89,53,27,29.73,29.44,11,1,14,0.00
2013-4-30,70.4,64.5,55.6,57.8,44.5,27.2,77,51,23,29.86,29.28,19,5,25,0.00